Home   Weather   Brentwood   Past weeks

Flag for United Kingdom Past Weather in Brentwood, England, United Kingdom — Yesterday and Last 2 Weeks

Now
24 °F

Cold.


Feels Like: 19 °F
Forecast: 27 / 40 °F
Wind: 3 mph from Southeast

Location: Gravesend-Broadness

Current Time: Jan 18, 2017 at 4:25:32 am

Latest Report: Jan 18, 2017 at 3:00 am


Visibility: N/A

Pressure: 30.67 "Hg

Humidity: 95%

Dew Point: 22 °F

Location of BrentwoodLocation

Past Weather in Brentwood — Graph

°F

Brentwood Temperature Yesterday

Maximum temperature yesterday: 41 °F (at 2:00 pm)
Minimum temperature yesterday: 28 °F (at 11:00 pm)
Average temperature yesterday: 34 °F

High & Low Weather Summary for the Past Weeks

 TemperatureHumidityPressure
High51 °F (Jan 11, 11:00 am)99% (Jan 6, 6:00 am)30.67 "Hg (Jan 6, 6:00 am)
Low24 °F (Jan 18, 3:00 am)52% (Jan 11, 3:00 pm)29.29 "Hg (Jan 12, 6:00 pm)
Average41 °F87%30.20 "Hg
* Reported Jan 3 3:00 am — Jan 18 3:00 am, Brentwood, Weather by CustomWeather, © 2017

Note: Actual official high and low records may vary slightly from our data, if they occured in-between our weather recording intervals... More about our weather records

Advertising

Brentwood Weather History for the Previous 24 Hours

Scroll right to see more
 ConditionsComfort  
Time TempWeatherWind HumidityBarometerVisibility
3:00 am
Wed, Jan 18
24 °FCold.3 mph95%30.67 "HgN/A
2:00 am24 °FCold.3 mph96%30.67 "HgN/A
1:00 am24 °FCold.No wind94%30.66 "HgN/A
12:00 am26 °FChilly.2 mph91%30.66 "HgN/A
11:00 pm
Tue, Jan 17
28 °FChilly.3 mph90%30.66 "HgN/A
10:00 pm28 °FChilly.3 mph89%30.66 "HgN/A
9:00 pm29 °FChilly.3 mph91%30.66 "HgN/A
8:00 pm29 °FChilly.5 mph94%30.66 "HgN/A
7:00 pm30 °FChilly.3 mph89%30.64 "HgN/A
6:00 pm32 °FChilly.3 mph86%30.63 "HgN/A
5:00 pm35 °FChilly.7 mph85%30.63 "HgN/A
4:00 pm37 °FChilly.6 mph80%30.62 "HgN/A
3:00 pm40 °FQuite cool.5 mph69%30.61 "HgN/A
2:00 pm41 °FQuite cool.2 mph66%30.60 "HgN/A
1:00 pm40 °FQuite cool.3 mph71%30.61 "HgN/A
12:00 pm40 °FChilly.3 mph73%30.63 "HgN/A
11:00 am36 °FChilly.2 mph81%30.62 "HgN/A
10:00 am35 °FChilly.7 mph87%30.61 "HgN/A
9:00 am33 °FChilly.5 mph99%30.59 "HgN/A
8:00 am30 °FChilly.1 mph96%30.58 "HgN/A
7:00 am32 °FChilly.3 mph98%30.55 "HgN/A
6:00 am32 °FChilly.3 mph98%30.55 "HgN/A
5:00 am34 °FChilly.3 mph99%30.53 "HgN/A
4:00 am33 °FChilly.5 mph98%30.53 "HgN/A
Weather by CustomWeather, © 2017

See weather overviewHow to use our weather pages